Aspen, CO

1:25 PM MDT on July 22, 2017 (GMT -0600)
Aspen-Pitkin County / Sardy Field

Weather History for KASE - March, 2013

Change the Weather History Date:

Saturday, March 23, 2013

  Actual Average Record
Temperature  
Mean Temperature 14 °F 33 °F  
Max Temperature 23 °F 45 °F 67 °F (2012)
Min Temperature 5 °F 21 °F 5 °F (2013)
Degree Days  
Heating Degree Days 51 32  
Month to date heating degree days 796 813  
Since 1 July heating degree days 6812 7132  
Cooling Degree Days 0 0  
Month to date cooling degree days 0 0  
Year to date cooling degree days 0 0  
Moisture  
Dew Point 10 °F    
Average Humidity 65    
Maximum Humidity 88    
Minimum Humidity 41    
Precipitation  
Precipitation 0.08 in 0.04 in 0.26 in (2004)
Month to date precipitation 1.06 0.91  
Year to date precipitation 2.21 3.15  
Sea Level Pressure  
Sea Level Pressure 29.84 in    
Wind  
Wind Speed 5 mph (NNW)    
Max Wind Speed 18 mph    
Max Gust Speed 29 mph    
Visibility 4 miles    
Events Snow    
T = Trace of Precipitation, MM = Missing Value Source: NWS Daily Summary

Daily Weather History Graph

Daily Weather History Graph

Search for Another Location

Airport or City:

Trip Planner

Search our weather history database for the weather conditions in past years. The results will help you decide how hot, cold, wet, or windy it might be!

Date:

Astronomy

Mar. 23, 2013 Rise Set
Actual Time 7:05 AM MDT 7:22 PM MDT
Civil Twilight 6:38 AM MDT 7:49 PM MDT
Nautical Twilight 6:07 AM MDT 8:20 PM MDT
Astronomical Twilight 5:35 AM MDT 8:53 PM MDT
Moon 3:53 PM MDT (3/23) 4:42 AM MDT (3/23)
Length of Visible Light 13h 10m
Length of Day
12h 17m
Waxing Gibbous, 85% of the Moon is Illuminated
Mar 23
Waxing Gibbous
Mar 27
Full
Apr 2
Last Quarter
Apr 10
New
Apr 18
First Quarter

Hourly Weather History & Observations

Time (MDT) Temp. Windchill Dew Point Humidity Pressure Visibility Wind Dir Wind Speed Gust Speed Precip Events Conditions
12:04 AM 19.4 °F - 15.8 °F 86% 29.74 in 3.0 mi Calm Calm - 0.00 in Snow Light Snow
12:11 AM 19.4 °F - 17.6 °F 93% 29.76 in 5.0 mi Calm Calm - 0.00 in Snow Light Snow
12:31 AM 19.4 °F 12.8 °F 15.8 °F 86% 29.75 in 2.5 mi NW 4.6 mph - 0.00 in Snow Light Snow
12:36 AM 19.4 °F 12.8 °F 15.8 °F 86% 29.75 in 1.8 mi NW 4.6 mph - 0.00 in Snow Light Snow
12:50 AM 19.4 °F - 15.8 °F 86% 29.76 in 0.8 mi Calm Calm - 0.01 in Snow Light Snow
12:53 AM 19.9 °F 12.1 °F 16.0 °F 85% 29.72 in 0.8 mi North 5.8 mph - 0.01 in Snow Light Snow
1:31 AM 19.4 °F 12.8 °F 15.8 °F 86% 29.77 in 0.8 mi NNW 4.6 mph - 0.02 in Snow Light Snow
1:53 AM 18.0 °F 12.7 °F 14.0 °F 84% 29.72 in 1.0 mi North 3.5 mph - 0.03 in Snow Light Snow
2:01 AM 19.4 °F - 15.8 °F 86% 29.76 in 1.2 mi Calm Calm - 0.00 in Snow Light Snow
2:49 AM 17.6 °F - 15.8 °F 93% 29.75 in 3.0 mi Calm Calm - 0.02 in Snow Light Snow
2:53 AM 18.0 °F - 14.0 °F 84% 29.71 in 4.0 mi Calm Calm - 0.02 in Snow Light Snow
3:24 AM 17.6 °F - 14.0 °F 86% 29.73 in 2.5 mi Calm Calm - 0.00 in Snow Light Snow
3:29 AM 17.6 °F - 14.0 °F 86% 29.73 in 1.8 mi Calm Calm - 0.00 in Snow Light Snow
3:49 AM 17.6 °F - 14.0 °F 86% 29.72 in 1.5 mi Calm Calm - 0.00 in Snow Light Snow
3:53 AM 18.0 °F - 14.0 °F 84% 29.70 in 1.2 mi Calm Calm - 0.00 in Snow Light Snow
4:47 AM 17.6 °F 12.3 °F 10.4 °F 73% 29.70 in 2.0 mi NNE 3.5 mph - 0.02 in Snow Light Snow
4:53 AM 17.1 °F - 10.9 °F 77% 29.68 in 4.0 mi Calm Calm - 0.02 in Snow Light Snow
5:26 AM 17.6 °F 9.3 °F 12.2 °F 79% 29.71 in 1.8 mi North 5.8 mph - 0.00 in Snow Light Snow
5:37 AM 15.8 °F 3.4 °F 12.2 °F 86% 29.71 in 0.8 mi NNW 10.4 mph - 0.00 in Snow Light Snow
5:53 AM 15.1 °F 2.5 °F 10.9 °F 84% 29.71 in 0.8 mi NNW 10.4 mph - 0.00 in Snow Light Snow
6:01 AM 15.8 °F 8.6 °F 10.4 °F 79% 29.73 in 1.2 mi NNW 4.6 mph - 0.00 in Snow Light Snow
6:53 AM 14.0 °F 5.1 °F 10.0 °F 84% 29.75 in 1.0 mi North 5.8 mph - 0.01 in Snow Light Snow
7:13 AM 12.2 °F 2.9 °F 8.6 °F 85% 29.75 in 1.2 mi North 5.8 mph - 0.00 in Snow Light Snow
7:21 AM 14.0 °F 6.5 °F 8.6 °F 79% 29.75 in 3.0 mi North 4.6 mph - 0.00 in Snow Light Snow
7:53 AM 14.0 °F 8.2 °F 9.0 °F 80% 29.80 in 10.0 mi North 3.5 mph - 0.00 in   Overcast
8:53 AM 14.0 °F 2.9 °F 7.0 °F 74% 29.83 in 7.0 mi North 8.1 mph - 0.01 in   Mostly Cloudy
9:53 AM 16.0 °F 5.3 °F 7.0 °F 68% 29.84 in 10.0 mi NNE 8.1 mph - N/A   Mostly Cloudy
10:53 AM 18.0 °F 7.7 °F 3.9 °F 54% 29.86 in 10.0 mi NNW 8.1 mph - N/A   Mostly Cloudy
11:53 AM 18.0 °F 5.4 °F 1.9 °F 50% 29.88 in 10.0 mi NNW 11.5 mph - N/A   Scattered Clouds
12:53 PM 19.9 °F 7.9 °F 1.0 °F 44% 29.88 in 4.0 mi North 11.5 mph 20.7 mph N/A   Haze
1:53 PM 21.0 °F 12.4 °F 1.0 °F 42% 29.90 in 7.0 mi Variable 6.9 mph - 0.00 in   Scattered Clouds
2:32 PM 19.4 °F 6.0 °F 10.4 °F 68% 29.85 in 1.5 mi North 13.8 mph 20.7 mph 0.00 in Snow Light Snow
2:41 PM 17.6 °F 5.0 °F 10.4 °F 73% 29.86 in 0.5 mi NNW 11.5 mph 19.6 mph 0.00 in Snow Snow
2:50 PM 17.6 °F 9.3 °F 10.4 °F 73% 29.85 in 6.0 mi NNW 5.8 mph - 0.00 in Snow Light Snow
2:53 PM 19.0 °F 9.0 °F 10.9 °F 71% 29.91 in 6.0 mi North 8.1 mph - 0.00 in Snow Light Snow
3:53 PM 21.0 °F 12.4 °F 3.0 °F 46% 29.91 in 10.0 mi Variable 6.9 mph - 0.00 in   Overcast
4:53 PM 21.9 °F 13.4 °F 3.9 °F 46% 29.92 in 10.0 mi North 6.9 mph 16.1 mph N/A   Overcast
5:08 PM 19.4 °F 6.6 °F 8.6 °F 63% 29.88 in 1.0 mi NNW 12.7 mph 23.0 mph 0.00 in Snow Light Snow
5:15 PM 19.4 °F 4.1 °F 8.6 °F 63% 29.89 in 5.0 mi NW 18.4 mph 27.6 mph 0.00 in Snow Light Snow
5:42 PM 17.6 °F 8.2 °F 10.4 °F 73% 29.90 in 1.0 mi Variable 6.9 mph 19.6 mph 0.00 in Snow Light Snow
5:53 PM 17.1 °F 10.0 °F 10.0 °F 74% 30.01 in 6.0 mi Variable 4.6 mph - 0.00 in Snow Light Snow
6:29 PM 17.6 °F 9.3 °F 10.4 °F 73% 29.93 in 2.8 mi NNW 5.8 mph - 0.00 in Snow Light Snow
6:53 PM 17.1 °F 7.6 °F 9.0 °F 71% 30.04 in 6.0 mi North 6.9 mph - 0.00 in   Haze
7:53 PM 17.1 °F 11.7 °F 6.1 °F 62% 30.06 in 10.0 mi NNW 3.5 mph - N/A   Overcast
8:53 PM 14.0 °F - 5.0 °F 67% 30.11 in 10.0 mi Calm Calm - N/A   Partly Cloudy
9:53 PM 10.9 °F - 3.9 °F 73% 30.14 in 10.0 mi Calm Calm - N/A   Mostly Cloudy
10:53 PM 10.0 °F 3.6 °F 1.9 °F 70% 30.15 in 10.0 mi South 3.5 mph - N/A   Overcast
11:53 PM 5.0 °F -4.1 °F -0.9 °F 76% 30.18 in 10.0 mi South 4.6 mph - N/A   Mostly Cloudy